Time,TemperatureF,DewpointF,PressureIn,WindDirection,WindDirectionDegrees,WindSpeedMPH,WindSpeedGustMPH,Humidity,HourlyPrecipIn,Conditions,Clouds,dailyrainin,SoftwareType,DateUTC
2013-02-24 00:01:00,20.0,15.0,29.89,West,280,2.0,5.0,82,0.00,,,0.00,,2013-02-24 06:01:00,
2013-02-24 00:11:00,20.0,15.0,29.89,West,280,2.0,5.0,82,0.00,,,0.00,,2013-02-24 06:11:00,
2013-02-24 00:21:00,20.0,15.0,29.90,WSW,250,1.0,7.0,82,0.00,,,0.00,,2013-02-24 06:21:00,
2013-02-24 00:31:00,21.0,16.0,29.90,West,261,3.0,5.0,81,0.00,,,0.00,,2013-02-24 06:31:00,
2013-02-24 00:42:00,21.0,16.0,29.90,West,261,3.0,5.0,81,0.00,,,0.00,,2013-02-24 06:42:00,
2013-02-24 00:52:00,21.0,16.0,29.91,SW,229,2.0,7.0,81,0.00,,,0.00,,2013-02-24 06:52:00,
2013-02-24 01:01:00,21.0,16.0,29.91,SW,232,2.0,4.0,81,0.00,,,0.00,,2013-02-24 07:01:00,
2013-02-24 01:12:00,21.0,16.0,29.91,SW,232,2.0,4.0,81,0.00,,,0.00,,2013-02-24 07:12:00,
2013-02-24 01:21:00,20.0,15.0,29.92,SW,225,2.0,4.0,81,0.00,,,0.00,,2013-02-24 07:21:00,
2013-02-24 01:31:00,20.0,15.0,29.92,SW,235,1.0,3.0,82,0.00,,,0.00,,2013-02-24 07:31:00,
2013-02-24 01:42:00,20.0,15.0,29.92,SW,235,1.0,3.0,82,0.00,,,0.00,,2013-02-24 07:42:00,
2013-02-24 01:52:00,20.0,15.0,29.92,West,267,1.0,4.0,82,0.00,,,0.00,,2013-02-24 07:52:00,
2013-02-24 02:01:00,20.0,15.0,29.92,West,267,1.0,4.0,82,0.00,,,0.00,,2013-02-24 08:01:00,
2013-02-24 02:11:00,20.0,15.0,29.92,West,267,1.0,4.0,82,0.00,,,0.00,,2013-02-24 08:11:00,
2013-02-24 02:22:00,20.0,16.0,29.93,WSW,242,1.0,7.0,83,0.00,,,0.00,,2013-02-24 08:22:00,
2013-02-24 02:31:00,20.0,16.0,29.93,West,260,1.0,4.0,83,0.00,,,0.00,,2013-02-24 08:31:00,
2013-02-24 02:42:00,20.0,16.0,29.93,West,260,1.0,4.0,83,0.00,,,0.00,,2013-02-24 08:42:00,
2013-02-24 02:53:00,20.0,16.0,29.92,WNW,283,2.0,5.0,83,0.00,,,0.00,,2013-02-24 08:53:00,
2013-02-24 03:01:00,20.0,16.0,29.92,WNW,283,2.0,5.0,83,0.00,,,0.00,,2013-02-24 09:01:00,
2013-02-24 03:11:00,20.0,16.0,29.92,WNW,283,2.0,5.0,83,0.00,,,0.00,,2013-02-24 09:11:00,
2013-02-24 03:21:00,20.0,16.0,29.92,West,278,4.0,6.0,83,0.00,,,0.00,,2013-02-24 09:21:00,
2013-02-24 03:31:00,19.0,15.0,29.92,West,260,2.0,6.0,83,0.00,,,0.00,,2013-02-24 09:31:00,
2013-02-24 03:42:00,19.0,15.0,29.92,West,260,2.0,6.0,83,0.00,,,0.00,,2013-02-24 09:42:00,
2013-02-24 03:51:00,19.0,15.0,29.93,West,268,2.0,5.0,83,0.00,,,0.00,,2013-02-24 09:51:00,
2013-02-24 04:01:00,19.0,15.0,29.94,WSW,257,2.0,5.0,84,0.00,,,0.00,,2013-02-24 10:01:00,
2013-02-24 04:11:00,19.0,15.0,29.94,WSW,257,2.0,5.0,84,0.00,,,0.00,,2013-02-24 10:11:00,
2013-02-24 04:21:00,18.0,14.0,29.94,WSW,249,2.0,5.0,84,0.00,,,0.00,,2013-02-24 10:21:00,
2013-02-24 04:31:00,18.0,14.0,29.94,WSW,248,1.0,5.0,84,0.00,,,0.00,,2013-02-24 10:31:00,
2013-02-24 04:41:00,18.0,14.0,29.94,WSW,248,1.0,5.0,84,0.00,,,0.00,,2013-02-24 10:41:00,
2013-02-24 04:51:00,19.0,15.0,29.95,WSW,238,1.0,7.0,84,0.00,,,0.00,,2013-02-24 10:51:00,
2013-02-24 05:01:00,20.0,16.0,29.95,WSW,247,4.0,8.0,84,0.00,,,0.00,,2013-02-24 11:01:00,
2013-02-24 05:11:00,20.0,16.0,29.95,WSW,247,4.0,8.0,84,0.00,,,0.00,,2013-02-24 11:11:00,
2013-02-24 05:21:00,19.0,15.0,29.96,SW,216,2.0,9.0,83,0.00,,,0.00,,2013-02-24 11:21:00,
2013-02-24 05:32:00,19.0,15.0,29.96,SW,232,0.0,5.0,83,0.00,,,0.00,,2013-02-24 11:32:00,
2013-02-24 05:41:00,19.0,15.0,29.96,SW,232,0.0,5.0,83,0.00,,,0.00,,2013-02-24 11:41:00,
2013-02-24 05:52:00,20.0,16.0,29.96,NW,307,3.0,8.0,84,0.00,,,0.00,,2013-02-24 11:52:00,
2013-02-24 06:01:00,20.0,16.0,29.97,WNW,284,2.0,11.0,83,0.00,,,0.00,,2013-02-24 12:01:00,
2013-02-24 06:11:00,20.0,16.0,29.97,WNW,284,2.0,11.0,83,0.00,,,0.00,,2013-02-24 12:11:00,
2013-02-24 06:21:00,20.0,16.0,29.97,WNW,284,2.0,11.0,83,0.00,,,0.00,,2013-02-24 12:21:00,
2013-02-24 06:32:00,20.0,16.0,29.98,WNW,285,3.0,9.0,84,0.00,,,0.00,,2013-02-24 12:32:00,
2013-02-24 06:46:00,20.0,16.0,29.98,WNW,285,3.0,9.0,84,0.00,,,0.00,,2013-02-24 12:46:00,
2013-02-24 07:11:00,19.0,15.0,29.98,NE,48,1.0,3.0,83,0.00,,,0.00,,2013-02-24 13:11:00,
2013-02-24 07:26:00,18.0,14.0,29.99,ESE,111,0.0,2.0,83,0.00,,,0.00,,2013-02-24 13:26:00,
2013-02-24 07:33:00,18.0,14.0,30.00,WSW,247,0.0,2.0,84,0.00,,,0.00,,2013-02-24 13:33:00,
2013-02-24 07:43:00,18.0,14.0,30.00,WSW,247,0.0,2.0,84,0.00,,,0.00,,2013-02-24 13:43:00,
2013-02-24 07:54:00,20.0,16.0,30.00,WNW,293,2.0,5.0,84,0.00,,,0.00,,2013-02-24 13:54:00,
2013-02-24 08:03:00,20.0,16.0,30.00,WNW,293,2.0,5.0,84,0.00,,,0.00,,2013-02-24 14:03:00,
2013-02-24 08:13:00,23.0,17.0,30.02,NW,321,2.0,4.0,78,0.00,,,0.00,,2013-02-24 14:13:00,
2013-02-24 08:24:00,23.0,17.0,30.02,NW,321,2.0,4.0,78,0.00,,,0.00,,2013-02-24 14:24:00,
2013-02-24 08:34:00,24.0,18.0,30.03,West,278,3.0,6.0,76,0.00,,,0.00,,2013-02-24 14:34:00,
2013-02-24 08:44:00,24.0,18.0,30.03,West,278,3.0,6.0,76,0.00,,,0.00,,2013-02-24 14:44:00,
2013-02-24 08:53:00,25.0,18.0,30.03,WNW,288,8.0,15.0,74,0.00,,,0.00,,2013-02-24 14:53:00,
2013-02-24 09:02:00,26.0,19.0,30.03,WNW,301,4.0,15.0,74,0.00,,,0.00,,2013-02-24 15:02:00,
2013-02-24 09:13:00,26.0,19.0,30.04,WNW,298,4.0,8.0,74,0.00,,,0.00,,2013-02-24 15:13:00,
2013-02-24 09:22:00,26.0,19.0,30.04,WNW,298,4.0,8.0,74,0.00,,,0.00,,2013-02-24 15:22:00,
2013-02-24 09:32:00,28.0,20.0,30.04,NW,312,8.0,10.0,70,0.00,,,0.00,,2013-02-24 15:32:00,
2013-02-24 09:42:00,28.0,20.0,30.04,NW,312,8.0,10.0,70,0.00,,,0.00,,2013-02-24 15:42:00,
2013-02-24 09:52:00,28.0,20.0,30.03,NW,313,3.0,9.0,71,0.00,,,0.00,,2013-02-24 15:52:00,
2013-02-24 10:01:00,30.0,21.0,30.03,NW,323,7.0,10.0,69,0.00,,,0.00,,2013-02-24 16:01:00,
2013-02-24 10:11:00,30.0,20.0,30.04,NW,314,8.0,11.0,67,0.00,,,0.00,,2013-02-24 16:11:00,
2013-02-24 10:21:00,30.0,20.0,30.04,NW,314,8.0,11.0,67,0.00,,,0.00,,2013-02-24 16:21:00,
2013-02-24 10:32:00,31.0,21.0,30.04,WNW,294,4.0,9.0,67,0.00,,,0.00,,2013-02-24 16:32:00,
2013-02-24 10:42:00,31.0,21.0,30.04,WNW,294,4.0,9.0,67,0.00,,,0.00,,2013-02-24 16:42:00,
2013-02-24 10:52:00,33.0,22.0,30.05,WNW,297,4.0,9.0,63,0.00,,,0.00,,2013-02-24 16:52:00,
2013-02-24 11:01:00,34.0,22.0,30.05,WNW,301,4.0,10.0,62,0.00,,,0.00,,2013-02-24 17:01:00,
2013-02-24 11:11:00,34.0,22.0,30.05,WNW,301,4.0,10.0,62,0.00,,,0.00,,2013-02-24 17:11:00,
2013-02-24 11:21:00,35.0,23.0,30.05,WNW,298,2.0,8.0,61,0.00,,,0.00,,2013-02-24 17:21:00,
2013-02-24 11:32:00,35.0,23.0,30.05,WNW,296,4.0,8.0,61,0.00,,,0.00,,2013-02-24 17:32:00,
2013-02-24 11:42:00,35.0,23.0,30.05,WNW,296,4.0,8.0,61,0.00,,,0.00,,2013-02-24 17:42:00,
2013-02-24 11:52:00,38.0,23.0,30.06,West,278,4.0,6.0,54,0.00,,,0.00,,2013-02-24 17:52:00,
2013-02-24 12:01:00,41.0,26.0,30.06,WSW,245,2.0,5.0,54,0.00,,,0.00,,2013-02-24 18:01:00,
2013-02-24 12:22:00,41.0,24.0,30.06,West,275,5.0,8.0,50,0.00,,,0.00,,2013-02-24 18:22:00,
2013-02-24 13:01:00,41.0,23.0,30.05,West,280,4.0,7.0,49,0.00,,,0.00,,2013-02-24 19:01:00,
2013-02-24 13:11:00,41.0,23.0,30.05,West,280,4.0,7.0,49,0.00,,,0.00,,2013-02-24 19:11:00,
2013-02-24 13:22:00,41.0,23.0,30.05,West,280,4.0,7.0,49,0.00,,,0.00,,2013-02-24 19:22:00,
2013-02-24 13:32:00,40.0,23.0,30.05,SSW,211,3.0,10.0,51,0.00,,,0.00,,2013-02-24 19:32:00,
2013-02-24 13:42:00,40.0,23.0,30.05,SSW,211,3.0,10.0,51,0.00,,,0.00,,2013-02-24 19:42:00,
2013-02-24 13:52:00,40.0,23.0,30.05,SSW,211,3.0,10.0,51,0.00,,,0.00,,2013-02-24 19:52:00,
2013-02-24 14:02:00,41.0,23.0,30.05,WSW,249,4.0,8.0,48,0.00,,,0.00,,2013-02-24 20:02:00,
2013-02-24 14:11:00,41.0,23.0,30.05,WSW,249,4.0,8.0,48,0.00,,,0.00,,2013-02-24 20:11:00,
2013-02-24 14:21:00,41.0,23.0,30.05,WSW,249,4.0,8.0,48,0.00,,,0.00,,2013-02-24 20:21:00,
2013-02-24 14:32:00,40.0,23.0,30.06,West,276,3.0,8.0,50,0.00,,,0.00,,2013-02-24 20:32:00,
2013-02-24 14:41:00,40.0,23.0,30.06,West,276,3.0,8.0,50,0.00,,,0.00,,2013-02-24 20:41:00,
2013-02-24 14:52:00,41.0,22.0,30.06,SW,228,5.0,8.0,47,0.00,,,0.00,,2013-02-24 20:52:00,
2013-02-24 15:01:00,42.0,23.0,30.05,WSW,242,3.0,8.0,47,0.00,,,0.00,,2013-02-24 21:01:00,
2013-02-24 15:11:00,42.0,23.0,30.05,WSW,242,3.0,8.0,47,0.00,,,0.00,,2013-02-24 21:11:00,
2013-02-24 15:21:00,41.0,23.0,30.05,SW,234,3.0,8.0,49,0.00,,,0.00,,2013-02-24 21:21:00,
2013-02-24 15:32:00,41.0,23.0,30.05,WSW,238,3.0,8.0,48,0.00,,,0.00,,2013-02-24 21:32:00,
2013-02-24 15:41:00,41.0,23.0,30.05,WSW,238,3.0,8.0,48,0.00,,,0.00,,2013-02-24 21:41:00,
2013-02-24 15:52:00,41.0,24.0,30.05,SW,218,2.0,8.0,50,0.00,,,0.00,,2013-02-24 21:52:00,
2013-02-24 16:01:00,43.0,23.0,30.05,West,263,3.0,6.0,44,0.00,,,0.00,,2013-02-24 22:01:00,
2013-02-24 16:11:00,43.0,23.0,30.05,West,263,3.0,6.0,44,0.00,,,0.00,,2013-02-24 22:11:00,
2013-02-24 16:21:00,42.0,22.0,30.05,WSW,247,3.0,5.0,45,0.00,,,0.00,,2013-02-24 22:21:00,
2013-02-24 16:31:00,41.0,23.0,30.05,SSW,197,4.0,7.0,48,0.00,,,0.00,,2013-02-24 22:31:00,
2013-02-24 16:41:00,41.0,23.0,30.05,SSW,197,4.0,7.0,48,0.00,,,0.00,,2013-02-24 22:41:00,
2013-02-24 16:52:00,40.0,22.0,30.06,SSW,203,4.0,7.0,49,0.00,,,0.00,,2013-02-24 22:52:00,
2013-02-24 17:02:00,38.0,22.0,30.06,WSW,250,2.0,6.0,51,0.00,,,0.00,,2013-02-24 23:02:00,
2013-02-24 17:11:00,38.0,22.0,30.06,WSW,250,2.0,6.0,51,0.00,,,0.00,,2013-02-24 23:11:00,
2013-02-24 17:21:00,37.0,21.0,30.06,SW,236,1.0,5.0,52,0.00,,,0.00,,2013-02-24 23:21:00,
2013-02-24 17:31:00,36.0,21.0,30.07,SW,228,2.0,4.0,55,0.00,,,0.00,,2013-02-24 23:31:00,
2013-02-24 17:41:00,36.0,21.0,30.07,SW,228,2.0,4.0,55,0.00,,,0.00,,2013-02-24 23:41:00,
2013-02-24 17:52:00,34.0,21.0,30.07,WSW,258,0.0,2.0,58,0.00,,,0.00,,2013-02-24 23:52:00,
2013-02-24 18:01:00,33.0,20.0,30.07,SW,229,2.0,3.0,59,0.00,,,0.00,,2013-02-25 00:01:00,
2013-02-24 18:11:00,33.0,20.0,30.07,SW,229,2.0,3.0,59,0.00,,,0.00,,2013-02-25 00:11:00,
2013-02-24 18:21:00,33.0,20.0,30.07,SW,229,2.0,3.0,59,0.00,,,0.00,,2013-02-25 00:21:00,
2013-02-24 18:31:00,31.0,21.0,30.07,SW,225,1.0,4.0,66,0.00,,,0.00,,2013-02-25 00:31:00,
2013-02-24 18:42:00,31.0,21.0,30.07,SW,225,1.0,4.0,66,0.00,,,0.00,,2013-02-25 00:42:00,
2013-02-24 18:52:00,29.0,19.0,30.09,WSW,249,0.0,2.0,66,0.00,,,0.00,,2013-02-25 00:52:00,
2013-02-24 19:01:00,27.0,19.0,30.09,North,4,0.0,2.0,72,0.00,,,0.00,,2013-02-25 01:01:00,
2013-02-24 19:11:00,27.0,19.0,30.09,North,4,0.0,2.0,72,0.00,,,0.00,,2013-02-25 01:11:00,
2013-02-24 19:21:00,26.0,19.0,30.10,North,1,0.0,2.0,76,0.00,,,0.00,,2013-02-25 01:21:00,
2013-02-24 19:31:00,25.0,19.0,30.10,South,181,0.0,1.0,76,0.00,,,0.00,,2013-02-25 01:31:00,
2013-02-24 19:42:00,25.0,19.0,30.10,South,181,0.0,1.0,76,0.00,,,0.00,,2013-02-25 01:42:00,
2013-02-24 19:52:00,25.0,19.0,30.10,SSW,205,0.0,2.0,77,0.00,,,0.00,,2013-02-25 01:52:00,
2013-02-24 20:01:00,24.0,19.0,30.10,NW,315,0.0,1.0,81,0.00,,,0.00,,2013-02-25 02:01:00,
2013-02-24 20:11:00,24.0,19.0,30.10,NW,315,0.0,1.0,81,0.00,,,0.00,,2013-02-25 02:11:00,
2013-02-24 20:21:00,24.0,19.0,30.10,NW,315,0.0,1.0,81,0.00,,,0.00,,2013-02-25 02:21:00,
2013-02-24 20:31:00,23.0,18.0,30.10,NW,314,0.0,1.0,82,0.00,,,0.00,,2013-02-25 02:31:00,
2013-02-24 20:41:00,23.0,18.0,30.10,NW,314,0.0,1.0,82,0.00,,,0.00,,2013-02-25 02:41:00,
2013-02-24 20:52:00,22.0,18.0,30.10,West,270,0.0,1.0,83,0.00,,,0.00,,2013-02-25 02:52:00,
2013-02-24 21:01:00,22.0,18.0,30.10,West,270,0.0,1.0,83,0.00,,,0.00,,2013-02-25 03:01:00,
2013-02-24 21:11:00,22.0,18.0,30.10,West,270,0.0,1.0,83,0.00,,,0.00,,2013-02-25 03:11:00,
2013-02-24 21:21:00,20.0,16.0,30.10,North,0,0.0,0.0,83,0.00,,,0.00,,2013-02-25 03:21:00,
2013-02-24 21:31:00,20.0,16.0,30.10,NW,314,0.0,1.0,86,0.00,,,0.00,,2013-02-25 03:31:00,
2013-02-24 21:42:00,20.0,16.0,30.10,NW,314,0.0,1.0,86,0.00,,,0.00,,2013-02-25 03:42:00,
2013-02-24 21:51:00,20.0,16.0,30.11,NW,314,0.0,2.0,86,0.00,,,0.00,,2013-02-25 03:51:00,
2013-02-24 22:01:00,19.0,16.0,30.11,NW,315,0.0,1.0,87,0.00,,,0.00,,2013-02-25 04:01:00,
2013-02-24 22:11:00,19.0,16.0,30.11,NW,315,0.0,1.0,87,0.00,,,0.00,,2013-02-25 04:11:00,
2013-02-24 22:21:00,19.0,16.0,30.11,NW,315,0.0,1.0,88,0.00,,,0.00,,2013-02-25 04:21:00,
2013-02-24 22:31:00,18.0,15.0,30.11,NW,314,0.0,1.0,87,0.00,,,0.00,,2013-02-25 04:31:00,
2013-02-24 22:41:00,18.0,15.0,30.11,NW,314,0.0,1.0,87,0.00,,,0.00,,2013-02-25 04:41:00,
2013-02-24 22:52:00,17.0,14.0,30.11,North,0,0.0,0.0,88,0.00,,,0.00,,2013-02-25 04:52:00,
2013-02-24 23:01:00,17.0,14.0,30.11,SSW,195,0.0,2.0,88,0.00,,,0.00,,2013-02-25 05:01:00,
2013-02-24 23:11:00,17.0,14.0,30.11,SSW,195,0.0,2.0,88,0.00,,,0.00,,2013-02-25 05:11:00,
2013-02-24 23:22:00,17.0,14.0,30.11,NW,314,0.0,1.0,88,0.00,,,0.00,,2013-02-25 05:22:00,
2013-02-24 23:32:00,17.0,14.0,30.11,SE,135,0.0,1.0,89,0.00,,,0.00,,2013-02-25 05:32:00,
2013-02-24 23:41:00,17.0,14.0,30.11,SE,135,0.0,1.0,89,0.00,,,0.00,,2013-02-25 05:41:00,
2013-02-24 23:52:00,17.0,14.0,30.11,NW,314,0.0,1.0,89,0.00,,,0.00,,2013-02-25 05:52:00,